| time (UTC) | temp C | wind direction | speed KPH | gust KPH | rain 1hr cm | rain 24hr cm | rain mn cm | humidity % | barometer mb |
| 20260505121557 | 20 | 164 | 3.2 | 0.0 | 0.00 | 0.00 | 0.00 | 81 | 1006.1 |
| 20260505120150 | 20 | 134 | 3.2 | 0.0 | 0.00 | 0.00 | 0.00 | 82 | 1006.2 |
| 20260505113034 | 20 | 203 | 3.2 | 0.0 | 0.00 | 0.00 | 0.00 | 82 | 1005.9 |
| 20260505101559 | 20 | 140 | 3.2 | 0.0 | 0.00 | 0.00 | 0.00 | 82 | 1005.6 |
| 20260505100149 | 20 | 150 | 3.2 | 0.0 | 0.00 | 0.00 | 0.00 | 82 | 1005.8 |
| 20260505094540 | 20 | 156 | 3.2 | 0.0 | 0.00 | 0.00 | 0.00 | 82 | 1006.1 |
| 20260505093132 | 20 | 161 | 1.6 | 0.0 | 0.00 | 0.00 | 0.00 | 82 | 1006.3 |
| 20260505090115 | 20 | 125 | 1.6 | 0.0 | 0.00 | 0.00 | 0.00 | 82 | 1006.4 |
| 20260505083109 | 20 | 155 | 1.6 | 0.0 | 0.00 | 0.00 | 0.00 | 81 | 1006.6 |
| 20260505081650 | 20 | 122 | 1.6 | 0.0 | 0.00 | 0.00 | 0.00 | 81 | 1006.8 |
| 20260505074632 | 20 | 172 | 1.6 | 0.0 | 0.00 | 0.00 | 0.00 | 81 | 1006.8 |
| 20260505073024 | 20 | 167 | 3.2 | 0.0 | 0.00 | 0.00 | 0.00 | 81 | 1006.8 |
| 20260505071615 | 20 | 163 | 3.2 | 0.0 | 0.00 | 0.00 | 0.00 | 80 | 1007.0 |
| 20260505064559 | 20 | 173 | 3.2 | 0.0 | 0.00 | 0.00 | 0.00 | 80 | 1007.3 |
| 20260505063059 | 20 | 126 | 4.8 | 0.0 | 0.00 | 0.00 | 0.00 | 80 | 1007.4 |
| 20260505060037 | 20 | 171 | 4.8 | 0.0 | 0.00 | 0.00 | 0.00 | 80 | 1007.4 |
| 20260505041604 | 21 | 178 | 4.8 | 0.0 | 0.00 | 0.00 | 0.00 | 76 | 1008.0 |
| 20260505033028 | 21 | 157 | 4.8 | 0.0 | 0.00 | 0.00 | 0.00 | 75 | 1007.9 |
| 20260505031520 | 21 | 167 | 3.2 | 0.0 | 0.00 | 0.00 | 0.00 | 74 | 1008.1 |
| 20260505023002 | 22 | 167 | 3.2 | 0.0 | 0.00 | 0.00 | 0.00 | 71 | 1008.0 |
| 20260505013041 | 23 | 147 | 3.2 | 0.0 | 0.00 | 0.00 | 0.00 | 66 | 1007.6 |
| 20260505010047 | 23 | 249 | 3.2 | 0.0 | 0.00 | 0.00 | 0.00 | 63 | 1007.3 |
| 20260504231540 | 27 | 209 | 4.8 | 0.0 | 0.00 | 0.00 | 0.00 | 53 | 1007.9 |
| 20260504230039 | 27 | 128 | 3.2 | 0.0 | 0.00 | 0.00 | 0.00 | 52 | 1007.9 |
| 20260504224521 | 28 | 146 | 6.4 | 0.0 | 0.00 | 0.00 | 0.00 | 50 | 1008.1 |
| 20260504221515 | 28 | 213 | 8.0 | 0.0 | 0.00 | 0.00 | 0.00 | 47 | 1008.5 |
| 20260504214542 | 29 | 130 | 4.8 | 0.0 | 0.00 | 0.00 | 0.00 | 46 | 1008.5 |
| 20260504210019 | 29 | 214 | 4.8 | 0.0 | 0.00 | 0.00 | 0.00 | 46 | 1009.3 |
| 20260504203104 | 29 | 161 | 4.8 | 0.0 | 0.00 | 0.00 | 0.00 | 45 | 1009.7 |
| 20260504194604 | 28 | 179 | 6.4 | 0.0 | 0.00 | 0.00 | 0.00 | 45 | 1010.4 |
| 20260504193014 | 28 | 228 | 8.0 | 0.0 | 0.00 | 0.00 | 0.00 | 44 | 1010.7 |
| 20260504174617 | 26 | 136 | 6.4 | 0.0 | 0.00 | 0.00 | 0.00 | 44 | 1012.3 |
| 20260504173002 | 26 | 192 | 6.4 | 0.0 | 0.00 | 0.00 | 0.00 | 47 | 1012.4 |